ONEWEB-0217, 48245

Orbit data source: Space-Track

ONEWEB-0217, 48245 is a payload satellite owned by One Web (NAA) (UK) in LEO that was launched on Sun, 25 Apr 2021 UTC via a SOYUZ-2-1B launch vehicle from the Vostochny Cosmodrome (VOSTO). Payload-class satellites include a variety of spacecraft equipped with specific instruments for various scientific and technological missions. These include communications satellites like Starlink; space stations such as the ISS; scientific satellites like the Hubble; Earth observation satellites from companies like Planet Labs, Umbra, and HawkEye 360; GPS; miniature CubeSats for education and research; and military/defense satellites.

Loading next visibility...
Identifier
48245, 2021-031AM
Orbit
LEO
Country
Flag of UKUK
Related business
Manufacturer
One Web
Mission
Operational Commercial Communications
Bus & Motor
ARROW, Unknown motor
Mass
148 kg wet, ~140 kg dry
Launch date (UTC)
2021-04-25 (5 years ago)
Launch vehicle
SOYUZ-2-1B
Launch site
Vostochny Cosmodrome (VOSTO)
Object type
Payload
Rocket body
Debris
Shape & HBR
Trap Box + 2 Pan, 6.7 m
Radar Cross Section
3.464 m², Large (>1 m²)

Expand to show TLE details & history
Last TLE update: 8 hours ago

TLE from 8 hours ago
0 ONEWEB-0217
1 48245U 21031AM  25346.95524591  .00000109  00000-0  26004-3 0  9995
2 48245  87.9002 326.7913 0001637  75.6202 284.5109 13.14503502223719
Epoch: 2025-12-12T22:55Z
TLE epoch observation values (Epoch: 2025-12-12T22:55:33.246Z)
Latitude
-0.00007°
Longitude
-98.98667°
Altitude
1,208.37 km
Speed
7.25 km/s
True Right ascension
21h 47m 09s
True Declination
0° 00' 00"
Sunlit
Object was in daylight at epoch
Visualization orbit readout
Latitude
Unknown
Longitude
Unknown
Altitude
Unknown
Speed
Unknown
Apparent Right ascension
Unknown
Apparent Declination
Unknown
Sunlit
N/A
Visualization observer readout
Local Sidereal Time
05:25:05
Azimuth
Unknown
Elevation
Unknown
Doppler factor
Unknown
Orbital elements
Apogee altitude
1,204.142 km
Perigee altitude
1,201.66 km
Semi-major axis
7,581.038 km
Eccentricity
0.00016
Inclination
87.9002°
RAAN
326.7913°
Arg. of periapsis
75.6202°
True anomaly
284.49274°
Mean anomaly
284.5109°
Eccentric anomaly
284.50182°
Mean motion
3.28814 °/min
Orbital period
109.48 mins
BSTAR
0.00026004
Loading maneuver chart data...
Computing Atmospheric mass density...
Loading historical data...
Loading historical data...
Loading historical data...
Loading historical data...
Loading historical data...
Loading historical data...
Loading historical data...

Documentation

Showing up to 5 results
|